Simultaneous Nadir Overpasses (SNOs) Predictions

Prediction of SNOs between AQUA and METOP-C Satellite Orbit:

Table of predicted SNOs for the next 14.0 days since TLE Epoch: 1/18/2019
Index Date (AQUA) Time (AQUA) Lat,Lon (AQUA) SZA (AQUA ) Date (METOP-C) Time (METOP-C) Lat,Lon (METOP-C) SZA (METOP-C ) Distance(km) Time Diff (sec)
1 01/20/2019 02:38:16 -73.63, -44.93 86.11 01/20/2019 02:37:04 -73.57, -45.64 86.13 23.23 72
2 01/20/2019 03:27:48 73.83, 122.25 94.11 01/20/2019 03:27:38 73.81, 122.26 94.09 2.61 10
3 01/20/2019 04:17:14 -73.88, -70.21 85.86 01/20/2019 04:18:19 -73.90, -70.20 85.85 1.94 65
4 01/22/2019 22:12:34 -73.76, 21.22 86.59 01/22/2019 22:11:24 -73.75, 21.19 86.58 1.18 70
5 01/22/2019 23:02:03 73.82,-171.27 93.47 01/22/2019 23:02:01 73.84,-171.26 93.49 2.85 2
6 01/22/2019 23:51:30 -73.91, -3.83 86.45 01/22/2019 23:52:43 -73.88, -3.83 86.48 2.91 73
7 01/25/2019 17:46:51 -73.79, 87.59 87.23 01/25/2019 17:45:48 -73.79, 87.68 87.22 2.79 63
8 01/25/2019 18:36:20 73.85,-104.92 92.84 01/25/2019 18:36:26 73.82,-104.89 92.81 3.54 6
9 01/25/2019 19:25:52 -74.20, 61.95 86.80 01/25/2019 19:27:02 -74.16, 63.26 86.90 39.98 70
10 01/28/2019 13:21:07 -73.77, 154.06 87.96 01/28/2019 13:20:13 -73.77, 154.04 87.95 0.89 54
11 01/28/2019 14:10:36 73.84, -38.46 92.11 01/28/2019 14:10:50 73.86, -38.41 92.12 1.88 14
12 01/28/2019 15:00:14 -74.49, 127.69 87.20 01/28/2019 15:01:20 -74.49, 130.50 87.32 83.52 66
13 01/31/2019 08:55:23 -73.81,-139.59 88.68 01/31/2019 08:54:36 -73.80,-139.48 88.68 3.67 47
14 01/31/2019 09:44:51 73.84, 27.99 91.35 01/31/2019 09:45:14 73.84, 27.95 91.35 1.15 23




NCC Satellite Simultaneous Nadir Overpasses (SNOs) Prediction Service
